This demonstration page uses our WeatherBlox Daily Observations layout. Learn more.

Left ArrowRight Arrow

53.62937, 11.41316

Hourly Observations for October 1, 2015

Temp ( °F °C ) Dew Point ( °F °C ) Humidity (%) Winds ( mph kmh ) Pressure ( in mb ) Visibility ( mi km ) Precip ( " mm )
6:20 am 06:20 Mostly Clear with Areas of Fog 34 1 34 1 100 100 VRB 1 2 30.53 1034 30 48 N/A
6:50 am 06:50 Mostly Clear with Areas of Fog 34 1 32 0 93 93 VRB 1 2 30.53 1034 30 48 N/A
7:20 am 07:20 Partly Cloudy with Areas of Fog 32 0 32 0 100 100 VRB 1 2 30.53 1034 30 48 N/A
7:50 am 07:50 Mostly Sunny 34 1 34 1 100 100 Calm 30.53 1034 5 8 N/A
8:20 am 08:20 Mostly Sunny 36 2 34 1 93 93 VRB 1 2 30.53 1034 5 8 N/A
8:50 am 08:50 Mostly Sunny 39 4 39 4 100 100 VRB 1 2 30.53 1034 7 11 N/A
9:20 am 09:20 Mostly Sunny 45 7 45 7 100 100 VRB 1 2 30.53 1034 7 11 N/A
9:50 am 09:50 Mostly Sunny 48 9 46 8 94 94 VRB 2 4 30.53 1034 7 11 N/A
10:20 am 10:20 Mostly Sunny 52 11 46 8 82 82 SW 5 7 30.53 1034 7 11 N/A
10:50 am 10:50 Mostly Sunny 55 13 45 7 67 67 WSW 5 7 30.53 1034 7 11 N/A
11:20 am 11:20 Mostly Sunny 57 14 45 7 63 63 WSW 7 11 30.53 1034 7 11 N/A
11:50 am 11:50 Mostly Sunny 57 14 45 7 63 63 WSW 7 11 30.53 1034 7 11 N/A
12:20 pm 12:20 Mostly Sunny 59 15 45 7 59 59 WSW 7 11 30.53 1034 7 11 N/A
12:50 pm 12:50 Mostly Sunny 59 15 45 7 59 59 SW 7 11 30.50 1033 7 11 N/A
1:20 pm 13:20 Mostly Sunny 61 16 45 7 55 55 W 6 9 30.50 1033 7 11 N/A
1:50 pm 13:50 Mostly Sunny 61 16 45 7 55 55 W 6 9 30.50 1033 7 11 N/A
2:20 pm 14:20 Mostly Sunny 61 16 45 7 55 55 S 5 7 30.50 1033 7 11 N/A
3:20 pm 15:20 Mostly Sunny 63 17 45 7 52 52 NW 6 9 30.48 1032 7 11 N/A
3:50 pm 15:50 Mostly Sunny 63 17 45 7 52 52 VRB 2 4 30.48 1032 7 11 N/A
4:20 pm 16:20 Mostly Sunny 63 17 46 8 56 56 SSW 7 11 30.45 1031 7 11 N/A
4:50 pm 16:50 Mostly Sunny 63 17 45 7 52 52 WSW 5 7 30.45 1031 7 11 N/A
5:20 pm 17:20 Mostly Sunny 61 16 45 7 55 55 W 6 9 30.45 1031 7 11 N/A
5:50 pm 17:50 Mostly Sunny 61 16 46 8 59 59 W 6 9 30.45 1031 7 11 N/A
6:20 pm 18:20 Mostly Sunny 59 15 48 9 68 68 WNW 3 6 30.42 1030 7 11 N/A
6:50 pm 18:50 Mostly Sunny 52 11 46 8 82 82 S 2 4 30.42 1030 7 11 N/A

Powered by AerisWeather